Location: Newark
(15.4608°S, 41.1635°W)
Time: 21:28:09
(UTC+00:00)

ISS - Visible Passes

Search period start: 09 December 2019 00:00
Search period end: 19 December 2019 00:00
Orbit: 411 x 421 km, 51.6° (Epoch: 10 December)

Date Brightness Start Highest point End Pass type
(mag) Time Alt. Az. Time Alt. Az. Time Alt. Az.
13 Dec -1.0 23:08:17 10° WNW 23:08:51 14° WNW 23:08:51 14° WNW visible
14 Dec -3.8 22:19:34 10° NW 22:22:55 89° WSW 22:26:19 10° SE visible
15 Dec -3.2 21:31:21 10° NNW 21:34:28 36° NE 21:37:37 10° ESE visible
16 Dec -0.8 07:24:20 10° S 07:27:01 22° SE 07:29:40 10° ENE visible
16 Dec -0.7 22:20:04 10° W 22:22:34 19° SW 22:25:06 10° S visible
17 Dec 0.0 06:37:28 10° SSE 06:38:23 11° SE 06:39:18 10° ESE visible
18 Dec -3.9 07:23:15 10° SW 07:26:37 76° NW 07:29:55 10° NNE visible
